Location: ???????????
(48.4379°N, 34.3206°E)
Time: 05:23:03
(UTC+00:00)

Daily predictions for brighter satellites

Satellite Brightness Start Highest point End
(mag) Time Altitude Azimuth Time Altitude Azimuth Time Altitude Azimuth
STARLINK-1264 3.5 00:01:10 13° WSW 00:04:25 69° NNW 00:08:06 10° ENE
STARLINK-60 3.1 00:01:25 10° WNW 00:04:29 45° SSW 00:07:33 10° SE
Cosmos 1892 2.9 00:02:00 14° S 00:05:11 66° E 00:08:58 10° NNE
STARLINK-1311 3.4 00:02:53 12° W 00:05:29 52° NNW 00:08:24 10° ENE
STARLINK-1029 2.8 00:03:21 18° WSW 00:05:32 90° NNW 00:08:44 10° ENE
STARLINK-42 3.7 00:02:34 10° W 00:05:39 49° NNW 00:08:44 10° ENE
IRS-1D 3.7 00:00:21 10° NNE 00:05:40 79° ESE 00:10:22 13° S
Cosmos 2322 Rocket 2.4 00:02:31 15° SSW 00:07:13 67° ESE 00:12:48 10° NNE
Nadezhda 3 Rocket 4.0 00:01:12 10° NNW 00:07:30 73° W 00:13:49 10° S
STARLINK-1267 3.6 00:04:13 12° WSW 00:07:37 67° NNW 00:11:18 10° ENE
STARLINK-1274 3.5 00:04:34 12° WSW 00:07:46 65° NNW 00:11:19 10° ENE
STARLINK-1288 4.1 00:05:18 18° SSW 00:08:03 47° SE 00:12:03 10° ENE
ERS-2 3.8 00:05:23 10° SE 00:08:44 35° ENE 00:12:06 10° N
In-Cosmos 22 Rocket 4.3 00:04:19 12° S 00:09:32 80° E 00:15:01 10° NNE
STARLINK-34 3.1 00:08:10 14° WSW 00:10:41 68° NNW 00:13:47 10° ENE
NOSS 2-1 (C) 2.9 00:09:37 19° SW 00:11:58 86° SE 00:15:38 10° NE
STARLINK-41 3.8 00:09:18 10° W 00:12:19 46° NNW 00:15:21 10° ENE
STARLINK-1365 4.5 00:08:36 10° WNW 00:12:35 52° NNE 00:16:32 10° E
STARLINK-62 3.1 00:10:19 13° WSW 00:12:58 66° NNW 00:16:05 10° ENE
STARLINK-1308 4.0 00:10:07 17° SW 00:13:03 51° SE 00:17:05 10° ENE
USA 229 DEB 4.0 00:06:29 10° NW 00:13:34 55° WSW 00:20:56 10° SSE
USA 229 4.0 00:06:35 10° NW 00:13:40 56° WSW 00:21:03 10° SSE
STARLINK-1207 3.7 00:10:22 10° WSW 00:14:02 63° NNW 00:17:44 10° ENE
ARIANE 5 R/B 3.4 00:09:21 10° NNE 00:14:11 45° E 00:18:58 10° S
NOSS 3-1 (C) 4.3 00:07:46 10° NW 00:15:04 53° WSW 00:23:21 10° SSE
Cosmos 1697 Rocket 4.5 00:12:02 10° W 00:16:27 23° NW 00:20:54 10° N
NOSS 2-1 (D) 2.9 00:14:21 17° SW 00:16:50 84° NW 00:20:32 10° NE
STARLINK-1266 3.8 00:13:35 10° W 00:17:16 61° NNW 00:20:58 10° ENE
STARLINK-64 3.2 00:16:29 15° WSW 00:19:22 81° SSE 00:22:58 10° ENE
STARLINK-1284 3.8 00:16:50 10° W 00:20:30 59° NNW 00:24:11 10° ENE
STARLINK-61 4.1 00:18:32 16° SSW 00:21:23 44° SE 00:25:08 10° ENE
STARLINK-1278 3.8 00:18:43 15° SW 00:22:12 66° SSE 00:26:27 10° ENE
NOSS 3-1 (A) 4.1 00:15:14 10° NW 00:22:42 67° SW 00:31:15 10° SSE
STARLINK-1304 3.8 00:19:39 15° SW 00:22:57 59° SSE 00:27:02 10° ENE
Cosmos 2221 3.2 00:19:27 10° NNW 00:23:31 38° W 00:27:10 12° SSW
STARLINK-1258 3.9 00:20:06 10° W 00:23:47 57° NNW 00:27:27 10° ENE
STARLINK-1280 3.8 00:20:29 14° SW 00:24:02 68° SSE 00:28:17 10° ENE
Resurs 1-4 Rocket 2.9 00:19:15 10° N 00:24:10 40° WNW 00:28:42 12° SW
STARLINK-1444 3.0 00:24:09 10° W 00:26:07 27° SW 00:28:11 10° SSE
STARLINK-1452 3.0 00:24:45 10° W 00:26:44 27° SW 00:28:47 10° SSE
STARLINK-55 4.2 00:23:48 10° W 00:26:51 39° N 00:29:54 10° ENE
STARLINK-1292 3.9 00:23:22 10° W 00:27:03 56° NNW 00:30:44 10° ENE
STARLINK-1450 3.0 00:26:03 10° W 00:27:57 26° SW 00:29:56 10° SSE
STARLINK-1436 (VISORSAT) 3.0 00:26:03 10° W 00:27:59 26° SW 00:30:01 10° SSE
STARLINK-1392 3.0 00:26:10 10° W 00:28:04 25° SW 00:30:03 10° SSE
STARLINK-1399 3.0 00:26:10 10° W 00:28:04 25° SW 00:30:04 10° SSE
STARLINK-1398 3.0 00:26:08 10° W 00:28:04 26° SW 00:30:06 10° SSE
STARLINK-1415 3.0 00:26:11 10° W 00:28:05 25° SW 00:30:04 10° SSE
STARLINK-1394 3.0 00:26:11 10° W 00:28:05 25° SW 00:30:05 10° SSE
STARLINK-1414 3.0 00:26:09 10° W 00:28:05 26° SW 00:30:07 10° SSE
STARLINK-1395 3.0 00:26:11 10° W 00:28:06 25° SW 00:30:05 10° SSE
STARLINK-1393 3.0 00:26:12 10° W 00:28:06 25° SW 00:30:05 10° SSE
STARLINK-1416 3.0 00:26:10 10° W 00:28:06 26° SW 00:30:07 10° SSE
STARLINK-1396 3.0 00:26:12 10° W 00:28:06 25° SW 00:30:06 10° SSE
STARLINK-1397 3.0 00:26:12 10° W 00:28:07 25° SW 00:30:06 10° SSE
STARLINK-1401 3.0 00:26:13 10° W 00:28:07 25° SW 00:30:06 10° SSE
STARLINK-1404 3.0 00:26:13 10° W 00:28:08 25° SW 00:30:07 10° SSE
STARLINK-1408 3.0 00:26:11 10° W 00:28:08 26° SW 00:30:09 10° SSE
STARLINK-1453 3.0 00:26:14 10° W 00:28:08 25° SW 00:30:07 10° SSE
STARLINK-1419 3.0 00:26:12 10° W 00:28:08 26° SW 00:30:09 10° SSE
STARLINK-1402 3.0 00:26:15 10° W 00:28:09 25° SW 00:30:08 10° SSE
STARLINK-1417 3.0 00:26:15 10° W 00:28:09 25° SW 00:30:08 10° SSE
STARLINK-1413 3.0 00:26:16 10° W 00:28:10 25° SW 00:30:09 10° SSE
STARLINK-1406 3.0 00:26:16 10° W 00:28:10 25° SW 00:30:09 10° SSE
STARLINK-1420 3.0 00:26:14 10° W 00:28:10 26° SW 00:30:12 10° SSE
STARLINK-1422 3.0 00:26:15 10° W 00:28:12 26° SW 00:30:13 10° SSE
STARLINK-1460 3.0 00:26:15 10° W 00:28:12 26° SW 00:30:13 10° SSE
STARLINK-1440 3.0 00:26:18 10° W 00:28:12 25° SW 00:30:11 10° SSE
STARLINK-1458 3.0 00:26:15 10° W 00:28:12 26° SW 00:30:14 10° SSE
STARLINK-1445 3.0 00:26:18 10° W 00:28:13 25° SW 00:30:12 10° SSE
STARLINK-1443 3.0 00:26:19 10° W 00:28:14 25° SW 00:30:13 10° SSE
STARLINK-1454 3.0 00:26:20 10° W 00:28:14 25° SW 00:30:13 10° SSE
STARLINK-1437 3.0 00:26:18 10° W 00:28:14 26° SW 00:30:15 10° SSE
STARLINK-1457 3.0 00:26:20 10° W 00:28:14 25° SW 00:30:14 10° SSE
STARLINK-1456 3.0 00:26:21 10° W 00:28:15 25° SW 00:30:14 10° SSE
STARLINK-1451 3.0 00:26:21 10° W 00:28:15 25° SW 00:30:14 10° SSE
STARLINK-1446 3.0 00:26:19 10° W 00:28:16 26° SW 00:30:17 10° SSE
STARLINK-1442 3.0 00:26:22 10° W 00:28:16 25° SW 00:30:15 10° SSE
STARLINK-1405 3.0 00:26:24 10° W 00:28:18 25° SW 00:30:18 10° SSE
STARLINK-1421 3.0 00:26:24 10° W 00:28:18 25° SW 00:30:18 10° SSE
STARLINK-1400 3.0 00:26:25 10° W 00:28:19 25° SW 00:30:18 10° SSE
STARLINK-1423 3.0 00:26:23 10° W 00:28:19 26° SW 00:30:20 10° SSE
STARLINK-1410 3.0 00:26:25 10° W 00:28:19 25° SW 00:30:18 10° SSE
STARLINK-1447 3.0 00:26:21 10° W 00:28:19 26° SW 00:30:20 10° SSE
STARLINK-1441 3.0 00:26:23 10° W 00:28:19 26° SW 00:30:21 10° SSE
STARLINK-1455 3.0 00:26:22 10° W 00:28:19 26° SW 00:30:20 10° SSE
STARLINK-1407 3.0 00:26:25 10° W 00:28:19 25° SW 00:30:19 10° SSE
STARLINK-1439 3.0 00:26:26 10° W 00:28:19 25° SW 00:30:19 10° SSE
STARLINK-1449 3.0 00:26:24 10° W 00:28:20 26° SW 00:30:22 10° SSE
STARLINK-1409 3.0 00:26:26 10° W 00:28:20 25° SW 00:30:20 10° SSE
STARLINK-1448 3.0 00:26:23 10° W 00:28:20 26° SW 00:30:22 10° SSE
STARLINK-1351 3.0 00:26:27 10° W 00:28:21 25° SW 00:30:20 10° SSE
STARLINK-1370 3.0 00:26:27 10° W 00:28:21 25° SW 00:30:21 10° SSE
STARLINK-1418 3.0 00:26:28 10° W 00:28:21 25° SW 00:30:21 10° SSE
STARLINK-1434 3.0 00:26:28 10° W 00:28:21 25° SW 00:30:21 10° SSE
STARLINK-1403 3.0 00:26:29 10° W 00:28:22 25° SW 00:30:22 10° SSE
STARLINK-1433 3.0 00:26:30 10° W 00:28:23 25° SW 00:30:23 10° SSE
STARLINK-1411 3.0 00:26:31 10° W 00:28:25 25° SW 00:30:24 10° SSE
STARLINK-1438 3.0 00:26:31 10° W 00:28:25 25° SW 00:30:24 10° SSE
STARLINK-1412 3.0 00:26:31 10° W 00:28:28 26° SW 00:30:30 10° SSE
STARLINK-1338 4.2 00:24:48 10° WNW 00:28:43 57° NNE 00:32:37 10° E
STARLINK-1301 4.1 00:26:11 10° W 00:29:56 54° NNW 00:33:43 10° ENE
AQUA 4.4 00:26:22 10° N 00:30:54 44° WNW 00:35:07 12° SW
STARLINK-1283 4.2 00:28:37 10° W 00:32:38 55° NNW 00:36:41 10° ENE
STARLINK-1289 4.0 00:29:55 10° W 00:33:35 53° NNW 00:37:15 10° ENE
STARLINK-29 3.1 00:33:27 10° WNW 00:36:34 48° SSW 00:39:38 10° SE
STARLINK-1371 4.1 00:32:56 10° WNW 00:36:52 61° NNE 00:40:47 10° E
STARLINK-1303 4.1 00:33:14 10° W 00:36:54 51° NNW 00:40:34 10° ENE
STARLINK-1286 3.7 00:33:57 11° SW 00:37:52 74° SSE 00:42:03 10° ENE
STARLINK-28 4.4 00:35:18 10° WNW 00:38:19 37° N 00:41:20 10° ENE
STARLINK-26 4.4 00:35:39 10° W 00:38:56 40° N 00:42:13 10° ENE
GEOS 3 Rocket 4.3 00:35:12 10° S 00:39:51 33° WSW 00:44:37 10° NW
STARLINK-1312 4.1 00:36:35 10° W 00:40:14 50° NNW 00:43:53 10° ENE
Cosmos 1844 Rocket 2.9 00:35:14 10° NNW 00:40:52 80° ENE 00:46:27 10° SSE
STARLINK-1341 4.0 00:37:03 10° WNW 00:40:59 63° NNE 00:44:54 10° ESE
SL-16 R/B 2.5 00:36:40 11° SW 00:42:05 61° WNW 00:47:44 10° NNE
STARLINK-48 3.7 00:38:48 10° WSW 00:42:41 69° NNW 00:46:34 10° ENE
STARLINK-1281 3.6 00:38:48 11° SW 00:42:51 77° SSE 00:47:00 10° ENE
Cosmos 1825 2.3 00:39:10 10° S 00:42:54 73° E 00:46:40 10° NNE
Cosmos 1408 2.6 00:40:24 10° SSW 00:44:04 71° W 00:47:46 10° N
IRS-P3 4.2 00:39:28 10° N 00:44:48 71° WNW 00:50:05 10° SSW
STARLINK-1374 4.0 00:41:08 10° WNW 00:45:05 65° NNE 00:49:01 10° ESE
Cosmos 2341 Rocket 4.1 00:39:43 10° SSW 00:46:04 75° W 00:52:26 10° N
Cosmos 1315 Rocket 4.3 00:44:45 10° NW 00:47:40 20° W 00:50:34 10° SW
STARLINK-1310 3.6 00:43:39 10° WSW 00:47:48 82° SSE 00:51:57 10° ENE
STARLINK-1339 3.9 00:45:17 10° WNW 00:49:14 68° NNE 00:53:10 10° ESE
STARLINK-80 4.3 00:47:10 10° W 00:50:51 47° NNW 00:54:32 10° ENE
CZ-2D R/B 3.5 00:47:17 10° N 00:51:31 26° WNW 00:55:44 10° WSW
STARLINK-57 4.4 00:48:25 10° SSW 00:51:43 32° SE 00:55:01 10° ENE
Cosmos 2058 3.7 00:47:50 10° SW 00:51:45 37° WNW 00:55:42 10° N
STARLINK-1319 3.6 00:48:38 10° WSW 00:52:46 86° SSE 00:56:57 10° ENE
STARLINK-33 4.4 00:50:10 10° WNW 00:53:04 35° N 00:56:00 10° ENE
STARLINK-49 4.5 00:49:57 10° SSW 00:53:14 32° SE 00:56:31 10° ENE
COBE Rocket 4.1 00:48:20 10° S 00:53:21 62° W 00:58:31 10° NNW
STARLINK-1377 3.8 00:49:26 10° WNW 00:53:24 71° NNE 00:57:21 10° ESE
CZ-4C R/B 4.4 00:48:49 10° WNW 00:53:27 24° NNW 00:58:48 10° NE
CZ-4B R/B 4.2 00:51:39 10° ESE 00:53:58 20° ENE 00:56:21 10° NNE
STARLINK-27 4.4 00:51:34 10° SSW 00:54:51 33° SE 00:58:09 10° ENE
STARLINK-1320 2.9 00:53:01 10° WNW 00:56:09 87° NNE 00:59:16 10° ESE
STARLINK-74 4.4 00:53:10 10° SSW 00:56:28 33° SE 00:59:47 10° ENE
STARLINK-1322 2.9 00:53:21 10° WNW 00:56:29 88° NNE 00:59:37 10° ESE
Shenzhou-11 Module 2.9 00:54:51 10° SW 00:56:49 21° S 00:58:46 10° SE
STARLINK-1324 2.9 00:53:41 10° WNW 00:56:49 88° NNE 00:59:57 10° ESE
STARLINK-1294 2.9 00:53:58 10° WNW 00:57:07 88° NE 01:00:16 10° ESE
Cosmos 1933 4.1 00:53:10 10° N 00:57:10 56° ENE 01:01:08 10° SSE
STARLINK-1261 2.9 00:54:21 10° WNW 00:57:30 89° NE 01:00:37 10° ESE
STARLINK-1353 3.8 00:53:34 10° WNW 00:57:33 74° NNE 01:01:30 10° ESE
STARLINK-1277 3.6 00:53:36 10° WSW 00:57:45 89° NNW 01:01:55 10° ENE
STARLINK-1325 2.9 00:54:42 10° WNW 00:57:50 89° N 01:00:57 10° ESE
STARLINK-39 4.3 00:54:46 10° SSW 00:58:06 34° SE 01:01:26 10° ENE
STARLINK-1333 2.9 00:55:04 10° WNW 00:58:12 90° NE 01:01:19 10° ESE
STARLINK-1334 2.8 00:55:23 10° WNW 00:58:31 90° S 01:01:38 10° ESE
STARLINK-1326 2.8 00:55:43 10° WNW 00:58:51 89° WSW 01:01:59 10° ESE
STARLINK-1323 2.8 00:56:03 10° WNW 00:59:11 89° SSW 01:02:19 10° ESE
STARLINK-1349 2.8 00:56:22 10° WNW 00:59:30 89° SSW 01:02:37 10° ESE
Cosmos 2278 Rocket 4.4 00:54:40 10° NNW 00:59:44 32° NE 01:04:46 10° ESE
STARLINK-31 4.3 00:56:24 10° SSW 00:59:45 36° SE 01:03:07 10° ENE
STARLINK-1336 2.8 00:56:43 10° WNW 00:59:51 88° SSW 01:02:58 10° ESE
STARLINK-1331 2.8 00:57:04 10° WNW 01:00:12 88° SSW 01:03:20 10° ESE
STARLINK-1344 2.8 00:57:23 10° WNW 01:00:32 87° SSW 01:03:39 10° ESE
STARLINK-1343 2.8 00:57:45 10° WNW 01:00:53 87° SSW 01:04:00 10° ESE
STARLINK-1346 2.9 00:58:03 10° WNW 01:01:13 87° SSW 01:04:22 10° ESE
STARLINK-69 4.1 00:58:05 10° SSW 01:01:30 39° SE 01:04:56 10° ENE
STARLINK-1328 2.8 00:58:26 10° WNW 01:01:34 86° SSW 01:04:41 10° ESE
STARLINK-1375 3.7 00:57:45 10° WNW 01:01:44 78° NNE 01:05:41 10° ESE
STARLINK-1354 2.8 00:58:46 10° WNW 01:01:53 86° SSW 01:05:01 10° ESE
STARLINK-1347 2.8 00:59:05 10° WNW 01:02:13 85° SSW 01:05:19 10° ESE
STARLINK-1357 2.8 00:59:27 10° WNW 01:02:35 85° SSW 01:05:42 10° ESE
Landsat 5 3.8 00:58:10 10° SSE 01:02:42 86° ENE 01:07:10 10° NNW
STARLINK-1276 3.7 00:58:35 10° WSW 01:02:44 85° NNW 01:06:55 10° ENE
STARLINK-1335 2.8 00:59:46 10° WNW 01:02:54 84° SSW 01:06:01 10° ESE
STARLINK-21 4.2 00:59:36 10° SSW 01:03:00 38° SE 01:06:24 10° ENE
STARLINK-1327 2.8 01:00:07 10° WNW 01:03:15 84° SSW 01:06:21 10° ESE
STARLINK-1340 2.8 01:00:28 10° WNW 01:03:36 83° SSW 01:06:43 10° ESE
STARLINK-1356 2.8 01:00:48 10° WNW 01:03:55 83° SSW 01:07:03 10° ESE
STARLINK-1345 2.8 01:01:08 10° WNW 01:04:16 83° SSW 01:07:23 10° ESE
STARLINK-1355 2.8 01:01:27 10° WNW 01:04:36 82° SSW 01:07:42 10° ESE
STARLINK-45 4.0 01:01:20 10° SW 01:04:47 42° SE 01:08:15 10° ENE
STARLINK-1321 2.8 01:01:47 10° WNW 01:04:55 82° SSW 01:08:02 10° ESE
STARLINK-1306 3.8 01:00:45 10° WSW 01:04:57 81° NNW 01:09:10 10° ENE
Cosmos 2360 Rocket 2.3 00:59:57 10° SSW 01:05:35 83° WNW 01:11:17 10° NNE
STARLINK-1350 3.6 01:01:55 10° WNW 01:05:53 81° NNE 01:09:51 10° ESE
